Location: Iesi
(43.5167°N, 13.2333°E)
Time: 16:56:03
(UTC+00:00)

GP-B - Pass Details

Date: 08 August 2020
Orbit: 632 x 635 km, 89.8° (Epoch: 23 September)

Event Time Altitude Azimuth Distance (km) Brightness Sun altitude
Rises 19:44:49 0° 9° (N) 2,943 7.0 -14.0°
Reaches altitude 10° 19:47:11 10° 17° (NNE) 2,029 6.0 -14.3°
Maximum altitude 19:51:22 39° 87° (E) 962 3.7 -14.9°
Enters shadow 19:53:15 26° 136° (SE) 1,252 4.0 -15.2°
